Falfurrias, TX

8:21 PM CST on November 19, 2019 (GMT -0600)
Falfurrias

Weather History for KBKS - September, 2019

Change the Weather History Date:

Thursday, September 5, 2019

  Actual Average (WUND) Record (WUND)
Temperature  
Mean Temperature 85 °F -  
Max Temperature 91 °F - - (-1)
Min Temperature 80 °F - - (-1)
Cooling Degree Days 20    
Growing Degree Days 35 (Base 50)    
Moisture  
Dew Point 78 °F    
Average Humidity 82    
Maximum Humidity 91    
Minimum Humidity 63    
Precipitation  
Precipitation 0.03 in - - ()
Sea Level Pressure  
Sea Level Pressure 30.01 in    
Wind  
Wind Speed 4 mph ()    
Max Wind Speed 13 mph    
Max Gust Speed 20 mph    
Visibility 8.5 miles    
Events      
Averages and records for this station are not official NWS values.
T = Trace of Precipitation, MM = Missing Value Source: Averaged Metar Reports

Daily Weather History Graph

Daily Weather History Graph

Search for Another Location

Airport or City:

Astronomy

Sep. 05, 2019 Rise Set
Actual Time 7:13 AM CDT 7:48 PM CDT
Civil Twilight 6:49 AM CDT 8:12 PM CDT
Nautical Twilight 6:22 AM CDT 8:39 PM CDT
Astronomical Twilight 5:54 AM CDT 9:07 PM CDT
Moon 1:44 PM CDT (9/5) No Moon Set
Length of Visible Light 13h 22m
Length of Day
12h 35m
Waxing Crescent, 45% of the Moon is Illuminated
Sep 5
Waxing Crescent
Sep 5
First Quarter
Sep 13
Full
Sep 21
Last Quarter
Sep 28
New

Hourly Weather History & Observations

Time (CDT) Temp. Heat Index Dew Point Humidity Pressure Visibility Wind Dir Wind Speed Gust Speed Precip Events Conditions
12:15 AM 81.5 °F 90.0 °F 78.4 °F 90% 29.95 in 7.0 mi ENE 4.6 mph - N/A   Overcast
12:35 AM 81.7 °F 90.5 °F 78.6 °F 90% 29.95 in 5.0 mi ENE 4.6 mph - N/A   Overcast
12:55 AM 81.5 °F 90.2 °F 78.8 °F 91% 29.95 in 3.0 mi ENE 3.5 mph - 0.03 in   Overcast
1:15 AM 81.7 °F 90.8 °F 78.8 °F 91% 29.95 in 7.0 mi East 4.6 mph - N/A   Scattered Clouds
1:35 AM 81.7 °F 90.8 °F 78.8 °F 91% 29.95 in 5.0 mi Calm Calm - N/A   Clear
1:55 AM 81.5 °F 90.2 °F 78.8 °F 91% 29.96 in 5.0 mi East 3.5 mph - N/A   Scattered Clouds
2:15 AM 81.7 °F 90.8 °F 78.8 °F 91% 29.96 in 5.0 mi Calm Calm - N/A   Mostly Cloudy
2:35 AM 81.5 °F 90.2 °F 78.8 °F 91% 29.95 in 4.0 mi Calm Calm - N/A   Mostly Cloudy
2:55 AM 81.7 °F 90.8 °F 79.0 °F 91% 29.97 in 5.0 mi ENE 4.6 mph - N/A   Overcast
3:15 AM 81.9 °F 91.3 °F 79.2 °F 91% 29.96 in 5.0 mi East 3.5 mph - N/A   Overcast
3:35 AM 81.9 °F 91.3 °F 79.2 °F 91% 29.96 in 7.0 mi East 4.6 mph - N/A   Overcast
3:55 AM 82.0 °F 91.9 °F 79.2 °F 91% 29.96 in 7.0 mi ESE 4.6 mph - N/A   Mostly Cloudy
4:15 AM 82.0 °F 91.6 °F 79.0 °F 90% 29.96 in 7.0 mi East 3.5 mph - N/A   Scattered Clouds
4:35 AM 81.7 °F 90.8 °F 78.8 °F 91% 29.96 in 7.0 mi East 3.5 mph - N/A   Clear
5:15 AM 81.5 °F 90.2 °F 78.8 °F 91% 29.96 in 7.0 mi ENE 4.6 mph - N/A   Clear
5:35 AM 81.5 °F 90.2 °F 78.8 °F 91% 29.96 in 7.0 mi NE 3.5 mph - N/A   Scattered Clouds
5:55 AM 81.5 °F 90.2 °F 78.8 °F 91% 29.97 in 7.0 mi ENE 3.5 mph - N/A   Overcast
6:15 AM 81.5 °F 90.2 °F 78.8 °F 91% 29.98 in 7.0 mi ENE 3.5 mph - N/A   Mostly Cloudy
6:35 AM 81.5 °F 90.2 °F 78.8 °F 91% 29.99 in 7.0 mi Calm Calm - N/A   Overcast
6:55 AM 81.9 °F 91.3 °F 79.0 °F 91% 30.01 in 7.0 mi ENE 3.5 mph - N/A   Overcast
7:15 AM 81.9 °F 91.3 °F 79.0 °F 91% 30.01 in 7.0 mi East 3.5 mph - N/A   Overcast
7:35 AM 81.7 °F 90.8 °F 78.8 °F 91% 30.02 in 7.0 mi NE 3.5 mph - N/A   Overcast
7:55 AM 81.9 °F 91.3 °F 79.0 °F 91% 30.03 in 7.0 mi ENE 3.5 mph - N/A   Overcast
8:15 AM 81.9 °F 91.3 °F 79.0 °F 91% 30.03 in 7.0 mi NNE 3.5 mph - N/A   Overcast
8:35 AM 82.0 °F 91.9 °F 79.2 °F 91% 30.03 in 7.0 mi NE 3.5 mph - N/A   Mostly Cloudy
8:55 AM 81.9 °F 91.3 °F 79.0 °F 91% 30.03 in 7.0 mi NE 3.5 mph - N/A   Scattered Clouds
9:15 AM 82.0 °F 91.6 °F 79.0 °F 90% 30.04 in 7.0 mi NE 3.5 mph - N/A   Clear
9:35 AM 81.7 °F 90.2 °F 78.3 °F 89% 30.05 in 10.0 mi NE 5.8 mph - N/A   Clear
9:55 AM 81.7 °F 90.0 °F 77.9 °F 88% 30.06 in 10.0 mi NE 8.1 mph - N/A   Clear
10:15 AM 81.9 °F 90.5 °F 78.1 °F 88% 30.06 in 10.0 mi NE 8.1 mph - N/A   Scattered Clouds
10:35 AM 81.9 °F 90.5 °F 78.1 °F 88% 30.06 in 10.0 mi NE 5.8 mph - N/A   Mostly Cloudy
10:55 AM 81.9 °F 90.5 °F 77.9 °F 88% 30.06 in 10.0 mi ENE 5.8 mph - N/A   Mostly Cloudy
11:15 AM 82.6 °F 92.3 °F 78.4 °F 87% 30.06 in 10.0 mi NE 6.9 mph - N/A   Overcast
11:35 AM 82.6 °F 92.3 °F 78.3 °F 87% 30.06 in 7.0 mi NE 8.1 mph - N/A   Overcast
11:55 AM 83.1 °F 94.0 °F 78.8 °F 87% 30.07 in 7.0 mi ENE 8.1 mph - N/A   Overcast
12:15 PM 83.5 °F 94.4 °F 78.6 °F 85% 30.07 in 10.0 mi ENE 9.2 mph - N/A   Overcast
12:35 PM 84.4 °F 96.3 °F 78.8 °F 83% 30.07 in 10.0 mi ENE 8.1 mph - N/A   Overcast
12:55 PM 85.8 °F 99.3 °F 79.0 °F 80% 30.06 in 10.0 mi ENE 9.2 mph - N/A   Mostly Cloudy
1:15 PM 86.5 °F 99.9 °F 78.4 °F 77% 30.06 in 10.0 mi ENE 10.4 mph - N/A   Mostly Cloudy
1:35 PM 86.9 °F 100.4 °F 78.4 °F 76% 30.06 in 10.0 mi ENE 11.5 mph 16.1 mph N/A   Mostly Cloudy
1:55 PM 86.4 °F 99.3 °F 78.4 °F 77% 30.06 in 10.0 mi ENE 12.7 mph - N/A   Mostly Cloudy
2:15 PM 87.4 °F 100.9 °F 78.1 °F 74% 30.05 in 10.0 mi East 10.4 mph - N/A   Mostly Cloudy
2:35 PM 89.4 °F 102.9 °F 77.7 °F 68% 30.03 in 10.0 mi ENE 9.2 mph - N/A   Scattered Clouds
2:55 PM 89.8 °F 103.3 °F 77.5 °F 67% 30.01 in 10.0 mi East 9.2 mph 16.1 mph N/A   Mostly Cloudy
3:15 PM 89.4 °F 102.3 °F 77.0 °F 67% 30.00 in 10.0 mi ENE 9.2 mph - N/A   Mostly Cloudy
3:35 PM 89.8 °F 102.7 °F 77.2 °F 66% 30.00 in 10.0 mi ENE 12.7 mph 19.6 mph N/A   Mostly Cloudy
3:55 PM 90.0 °F 102.5 °F 76.6 °F 65% 30.00 in 10.0 mi ENE 10.4 mph - N/A   Scattered Clouds
4:15 PM 89.6 °F 101.6 °F 76.3 °F 65% 30.00 in 10.0 mi ENE 10.4 mph - N/A   Scattered Clouds
4:35 PM 90.0 °F 101.3 °F 75.7 °F 63% 30.00 in 10.0 mi East 10.4 mph - N/A   Scattered Clouds
4:55 PM 89.8 °F 100.9 °F 75.7 °F 63% 30.00 in 10.0 mi East 10.4 mph - N/A   Scattered Clouds
5:15 PM 89.4 °F 100.5 °F 75.7 °F 64% 30.00 in 10.0 mi East 6.9 mph - N/A   Scattered Clouds
5:35 PM 89.2 °F 100.1 °F 75.6 °F 64% 30.00 in 10.0 mi East 4.6 mph - N/A   Scattered Clouds
5:55 PM 88.3 °F 98.4 °F 75.4 °F 65% 30.00 in 10.0 mi East 5.8 mph - N/A   Mostly Cloudy
6:15 PM 88.7 °F 99.3 °F 75.6 °F 65% 30.00 in 10.0 mi East 9.2 mph - N/A   Overcast
6:35 PM 88.0 °F 98.5 °F 75.7 °F 67% 30.00 in 10.0 mi ESE 4.6 mph - N/A   Overcast
6:55 PM 87.3 °F 98.2 °F 76.5 °F 70% 30.00 in 10.0 mi South 4.6 mph - N/A   Overcast
7:15 PM 84.2 °F 93.4 °F 76.1 °F 77% 29.99 in 10.0 mi WSW 3.5 mph - N/A   Mostly Cloudy
7:35 PM 83.8 °F 92.8 °F 76.3 °F 78% 30.00 in 10.0 mi Calm Calm - N/A   Scattered Clouds
7:55 PM 83.8 °F 93.2 °F 76.6 °F 79% 29.99 in 10.0 mi Calm Calm - N/A   Scattered Clouds
8:15 PM 84.4 °F 94.6 °F 77.2 °F 79% 30.00 in 10.0 mi East 4.6 mph - N/A   Overcast
8:35 PM 84.6 °F 94.7 °F 77.0 °F 78% 30.00 in 10.0 mi East 5.8 mph - N/A   Mostly Cloudy
8:55 PM 84.2 °F 93.4 °F 76.5 °F 77% 30.01 in 10.0 mi ESE 4.6 mph - N/A   Scattered Clouds
9:15 PM 83.5 °F 92.2 °F 76.5 °F 79% 30.01 in 10.0 mi Calm Calm - N/A   Scattered Clouds
9:35 PM 83.3 °F 92.1 °F 76.5 °F 80% 30.02 in 10.0 mi Calm Calm - N/A   Clear
9:55 PM 82.8 °F 91.6 °F 77.2 °F 83% 30.02 in 10.0 mi SSE 3.5 mph - N/A   Clear
10:15 PM 82.4 °F 90.9 °F 77.0 °F 84% 30.03 in 10.0 mi Calm Calm - N/A   Clear
10:35 PM 82.4 °F 90.9 °F 77.0 °F 84% 30.03 in 10.0 mi Calm Calm - N/A   Clear
10:55 PM 81.5 °F 89.0 °F 77.0 °F 86% 30.03 in 10.0 mi ESE 3.5 mph - N/A   Clear
11:15 PM 81.3 °F 88.7 °F 77.0 °F 87% 30.03 in 10.0 mi Calm Calm - N/A   Clear
11:35 PM 80.8 °F 87.4 °F 77.0 °F 88% 30.03 in 10.0 mi ESE 3.5 mph - N/A   Clear
11:55 PM 80.6 °F 87.1 °F 77.0 °F 89% 30.03 in 10.0 mi Calm Calm - N/A   Clear